Location: Unspecified
(0.0000°N, 0.0000°E)
Time: 19:57:16
(UTC+00:00)

DMSP 5D-2 F13 DEB - Pass Details

Date: 21 February 2026
Orbit: 782 x 824 km, 98.9° (Epoch: 12 March)

Event Time Altitude Azimuth Distance (km) Brightness Sun altitude
Rises 20:33:15 0° 207° (SSW) 3,271 ? -34.3°
Reaches altitude 10° 20:37:51 10° 245° (WSW) 2,335 ? -35.4°
Maximum altitude 20:38:50 11° 256° (WSW) 2,297 ? -35.6°
Drops below altitude 10° 20:39:48 10° 268° (W) 2,332 ? -35.9°
Sets 20:44:24 0° 306° (NW) 3,257 ? -37.0°
